Toledo Metcalf, OH

3:09 PM EDT on March 29, 2017 (GMT -0400)
Metcalf

Weather History for KTDZ - January, 2014

Change the Weather History Date:

Saturday, January 4, 2014

  Actual Average (KTOL) Record (KTOL)
Temperature  
Mean Temperature 20 °F -  
Max Temperature 32 °F 33 °F 63 °F (1997)
Min Temperature 9 °F 16 °F -13 °F (1981)
Degree Days  
Heating Degree Days 44    
Moisture  
Dew Point 12 °F    
Average Humidity 62    
Maximum Humidity 75    
Minimum Humidity 55    
Precipitation  
Precipitation 0.00 in - - ()
Sea Level Pressure  
Sea Level Pressure 30.07 in    
Wind  
Wind Speed 14 mph (SSW)    
Max Wind Speed 21 mph    
Max Gust Speed 32 mph    
Visibility 10 miles    
Events      
Averages and records for this station are not official NWS values.
T = Trace of Precipitation, MM = Missing Value Source: NWS Daily Summary

Daily Weather History Graph

Daily Weather History Graph

Search for Another Location

Airport or City:

Trip Planner

Search our weather history database for the weather conditions in past years. The results will help you decide how hot, cold, wet, or windy it might be!

Date:

Astronomy

Jan. 04, 2014 Rise Set
Actual Time 8:00 AM EST 5:17 PM EST
Civil Twilight 7:29 AM EST 5:48 PM EST
Nautical Twilight 6:54 AM EST 6:23 PM EST
Astronomical Twilight 6:21 AM EST 6:56 PM EST
Moon 10:02 AM EST (1/4) 9:39 PM EST (1/4)
Length of Visible Light 10h 19m
Length of Day
9h 16m
Waxing Crescent, 15% of the Moon is Illuminated
Jan 4
Waxing Crescent
Jan 7
First Quarter
Jan 15
Full
Jan 24
Last Quarter
Jan 30
New

Hourly Weather History & Observations

Time (EST) Temp. Windchill Dew Point Humidity Pressure Visibility Wind Dir Wind Speed Gust Speed Precip Events Conditions
12:53 AM 9.0 °F -7.3 °F -0.0 °F 67% 30.22 in 10.0 mi South 13.8 mph - N/A   Clear
1:53 AM 10.0 °F -6.5 °F -0.0 °F 64% 30.19 in 10.0 mi South 15.0 mph - N/A   Clear
2:53 AM 10.9 °F -6.5 °F 1.0 °F 64% 30.17 in 10.0 mi South 17.3 mph - N/A   Clear
3:53 AM 12.9 °F -3.9 °F 1.9 °F 62% 30.14 in 10.0 mi South 17.3 mph - N/A   Clear
4:53 AM 12.9 °F -4.4 °F 3.0 °F 65% 30.12 in 10.0 mi South 18.4 mph 26.5 mph N/A   Clear
5:53 AM 14.0 °F -3.0 °F 3.9 °F 64% 30.09 in 10.0 mi South 18.4 mph 26.5 mph N/A   Clear
6:53 AM 15.1 °F -0.1 °F 3.9 °F 61% 30.08 in 10.0 mi South 15.0 mph - N/A   Clear
7:53 AM 17.1 °F 3.0 °F 5.0 °F 59% 30.06 in 10.0 mi SSW 13.8 mph - N/A   Clear
8:53 AM 19.0 °F 5.0 °F 7.0 °F 59% 30.05 in 10.0 mi South 15.0 mph - N/A   Clear
9:53 AM 23.0 °F 10.1 °F 9.0 °F 55% 30.04 in 10.0 mi SSW 15.0 mph - N/A   Clear
10:53 AM 26.1 °F 12.3 °F 12.0 °F 55% 30.05 in 10.0 mi SSW 19.6 mph 28.8 mph N/A   Clear
11:53 AM 26.1 °F 12.0 °F 14.0 °F 60% 30.03 in 10.0 mi SSW 20.7 mph 28.8 mph N/A   Clear
12:53 PM 27.0 °F 13.5 °F 15.1 °F 61% 30.01 in 10.0 mi SSW 19.6 mph 32.2 mph N/A   Clear
1:53 PM 28.9 °F 16.5 °F 17.1 °F 61% 29.99 in 10.0 mi SSW 18.4 mph 25.3 mph N/A   Clear
2:53 PM 30.0 °F 19.1 °F 18.0 °F 61% 29.99 in 10.0 mi SSW 15.0 mph - N/A   Scattered Clouds
3:53 PM 30.9 °F 20.2 °F 19.0 °F 61% 30.02 in 10.0 mi SSW 15.0 mph - N/A   Overcast
4:53 PM 30.0 °F 20.5 °F 18.0 °F 61% 30.03 in 10.0 mi SSW 11.5 mph - N/A   Mostly Cloudy
5:53 PM 30.0 °F 21.7 °F 18.0 °F 61% 30.04 in 10.0 mi SSW 9.2 mph - N/A   Overcast
6:53 PM 30.0 °F 24.1 °F 19.0 °F 64% 30.05 in 10.0 mi SSW 5.8 mph - N/A   Overcast
7:53 PM 30.9 °F 25.2 °F 19.9 °F 64% 30.06 in 10.0 mi SSW 5.8 mph - N/A   Overcast
8:53 PM 32.0 °F 24.8 °F 19.9 °F 61% 30.06 in 10.0 mi SSW 8.1 mph - N/A   Overcast
9:53 PM 32.0 °F 25.6 °F 21.0 °F 64% 30.06 in 10.0 mi SSW 6.9 mph - N/A   Overcast
10:53 PM 30.0 °F 25.2 °F 23.0 °F 75% 30.06 in 10.0 mi South 4.6 mph - N/A   Overcast
11:53 PM 32.0 °F 27.5 °F 21.9 °F 66% 30.06 in 10.0 mi South 4.6 mph - N/A   Overcast